Tracking 35331 objects as of 16-Sep-2026
HD Live streaming from Space Station
objects crossing your sky now

BRO-7


BRO-7 is no longer on orbit
BRO-7 is classified as:


NORAD ID: 52174
Int'l Code: 2022-033T
Launch date: April 1, 2022
Source: France (FR)
Launch site: AIR FORCE EASTERN TEST RANGE (AFETR)
Decay date: 2025-06-28

Uplink (MHz):
Downlink (MHz): 401.735
Beacon (MHz):
Mode: 9k6 FSK
Call sign:
Status: Reentered

Your satellite tracking list
Your tracking list is empty




NASA's NSSDC Master Catalog

Two Line Element Set (TLE):
1 52174U 22033T   25162.76230045  .11393183  24806-5  44250-3 0  9994
2 52174  97.2708 262.3985 0016745 266.7450  93.1935 16.42172300179386
Source of the keplerian elements: AFSPC